Wind_Speed
17 16 16 16 15 15 15 15 15 15 15 15 15 14 14 13 13 13 12 12 12 11 10 10 10 9 8 8 7 7 6 6 5 5 5 4 4 4 3 3 3 2 1
19 18 18 17 17 17 17 17 17 17 17 17 17 16 15 15 14 14 14 13 13 12 11 11 10 10 9 9 9 8 8 7 7 6 6 5 5 5 5 4 3 3 2
20 20 19 19 18 18 18 18 18 18 19 19 18 18 17 17 16 16 16 15 14 14 13 12 11 11 10 10 10 10 9 9 8 8 8 7 7 6 6 6 5 4 4
21 21 21 21 20 19 19 19 19 19 19 20 19 19 19 19 18 18 17 16 16 15 15 14 13 12 12 11 11 11 10 10 10 9 9 9 8 8 8 7 6 6 6
22 23 23 22 22 21 21 21 21 21 20 20 20 20 20 21 20 19 19 18 17 17 17 16 15 14 14 13 13 12 12 11 11 11 11 10 10 9 9 9 8 7 7
23 23 24 23 23 23 23 22 22 22 22 21 20 20 20 21 21 20 20 20 19 19 18 18 17 16 16 15 15 14 13 13 12 12 12 12 11 11 11 10 10 9 8
24 25 25 25 24 24 24 24 23 23 23 23 22 22 22 21 22 22 20 21 21 21 20 19 18 18 17 17 17 16 15 14 14 14 13 13 13 13 13 12 12 11 11
25 25 26 26 26 26 26 25 25 24 24 24 24 24 24 23 23 23 23 22 22 22 21 21 20 19 19 19 18 18 17 17 16 16 15 15 15 15 15 14 14 13 13
27 27 27 27 27 27 27 27 27 26 26 26 26 25 25 25 24 24 23 23 22 22 22 22 22 21 21 21 20 20 19 19 18 18 18 17 17 17 17 16 16 16 15
30 29 28 28 28 28 28 28 28 28 27 27 27 26 26 27 26 25 25 24 24 23 23 23 23 23 23 23 22 21 21 21 20 20 20 20 20 19 19 19 18 18 17
31 31 31 30 30 30 30 29 29 29 29 28 28 28 28 28 27 27 27 26 26 25 24 25 25 25 25 24 24 23 23 22 22 22 22 22 21 21 21 21 20 20 20
33 33 33 32 31 31 32 31 31 31 31 30 30 29 30 30 29 28 28 28 28 28 27 26 26 26 26 25 25 24 24 23 23 23 23 23 23 23 23 23 22 22 22
35 36 35 35 34 33 33 33 33 33 32 32 32 31 32 32 31 30 30 30 29 29 29 28 28 27 27 27 26 26 26 25 25 25 25 25 25 25 25 25 25 25 24
37 37 38 37 37 36 35 35 35 35 35 34 34 34 34 33 33 32 32 32 31 31 30 30 31 30 29 28 28 28 28 27 27 27 27 27 26 27 27 27 27 27 27
37 38 38 38 39 39 38 37 37 37 37 37 37 36 36 35 34 33 33 33 33 33 32 32 32 32 31 31 30 30 30 29 29 29 29 29 28 28 29 29 30 29 29
38 39 40 40 39 40 40 39 39 40 39 39 38 38 38 37 37 36 35 34 34 34 34 33 33 33 33 33 33 32 32 31 31 31 31 31 31 30 30 31 31 31 31
40 41 42 41 41 41 41 41 41 41 41 41 40 39 39 39 39 38 37 36 36 36 36 35 35 34 34 34 34 33 33 33 33 33 33 33 33 33 32 32 32 32 32
42 42 43 43 42 43 43 42 42 42 42 42 42 41 41 41 40 40 40 39 38 38 38 37 37 37 36 36 35 35 35 35 35 35 35 35 35 34 34 34 34 34 34
43 44 44 44 44 44 44 44 44 44 44 43 43 43 42 42 42 41 41 41 41 40 39 39 39 39 39 38 37 37 37 37 37 37 37 37 37 36 36 35 35 35 35
43 44 45 45 46 46 46 45 46 46 46 46 45 45 45 44 44 44 43 42 43 42 41 41 41 41 41 41 40 40 39 39 39 39 38 37 36 37 37 37 36 36 36
44 44 45 45 46 47 47 47 47 47 47 47 47 47 47 46 46 46 46 44 45 44 43 42 42 42 42 42 42 42 42 41 41 40 39 38 37 37 37 38 38 38 38
44 45 45 46 46 46 47 47 48 49 49 49 49 49 49 49 49 49 49 48 48 47 46 45 44 44 44 44 44 44 44 43 42 42 41 41 40 40 40 40 40 40 40
43 44 45 46 47 47 47 48 48 49 50 50 51 51 51 51 51 50 50 50 50 50 49 48 47 47 47 47 46 46 46 45 44 43 43 43 43 43 43 42 42 42 42
43 43 44 46 47 48 48 49 49 50 50 51 52 52 53 53 52 52 52 52 51 51 50 50 49 48 48 48 48 48 48 47 46 45 45 46 46 46 45 45 45 45 45
44 44 44 45 47 47 48 49 50 51 51 52 52 53 53 53 53 53 54 53 53 52 52 52 52 51 50 50 50 50 49 49 49 49 48 48 49 49 48 48 47 47 47
44 45 46 46 47 48 48 49 50 51 52 52 53 53 54 54 55 55 55 54 54 54 54 54 53 53 53 53 52 52 52 52 52 52 51 51 51 50 51 50 50 49 48
Wind_Direction
245 246 243 241 241 240 240 238 236 237 237 235 235 235 233 230 228 226 224 221 221 223 222 218 218 215 214 213 212 210 210 211 213 212 208 205 203 201 199 192 190 187 179
246 246 245 244 243 242 241 241 240 238 236 235 235 234 234 231 230 228 226 224 224 224 224 223 222 219 219 220 220 218 216 216 219 222 223 222 222 220 218 219 218 217 218
245 245 246 246 245 243 241 241 242 240 236 234 234 234 234 234 233 233 231 230 228 227 226 226 226 224 223 223 225 225 223 223 226 229 231 231 234 233 230 230 232 234 237
245 245 245 245 244 243 242 241 242 242 239 235 234 234 234 234 235 234 233 233 231 230 229 230 231 231 229 230 230 229 228 229 231 233 235 237 239 239 238 238 239 241 243
245 245 244 244 244 243 243 243 243 243 241 238 235 236 236 234 234 234 233 233 233 231 231 232 233 235 234 236 235 234 235 235 236 236 237 239 240 241 241 241 241 241 243
244 244 244 244 244 244 243 244 244 244 242 241 238 236 237 236 235 236 236 233 233 233 232 233 234 237 237 240 238 238 239 238 240 240 241 241 240 240 242 242 243 243 245
244 244 244 243 243 243 244 245 244 244 244 243 241 238 238 238 237 238 239 238 237 236 236 236 235 237 238 240 240 240 242 242 243 244 243 243 241 240 242 244 245 246 248
244 244 244 244 243 243 244 244 243 243 243 243 242 241 239 238 239 240 241 242 240 239 238 239 238 238 239 241 242 243 245 246 246 246 246 245 245 245 245 246 246 248 249
243 244 244 243 243 243 244 243 242 242 242 242 242 242 240 239 239 241 242 242 242 242 241 241 242 242 242 243 244 245 247 248 247 248 248 248 249 249 249 249 250 251 252
243 243 243 243 243 243 244 243 242 241 241 241 241 242 240 240 241 241 243 243 243 244 243 244 245 245 245 246 246 246 247 250 249 249 250 250 250 250 250 251 252 253 253
244 243 243 244 245 245 245 243 241 242 242 241 242 242 241 241 243 242 243 244 244 245 246 246 246 247 247 248 248 248 249 250 250 251 251 252 252 251 251 252 253 254 255
245 244 243 242 243 244 245 245 243 242 242 242 242 243 243 243 244 244 243 245 246 247 247 247 246 246 247 247 248 249 251 252 252 253 253 254 254 253 253 254 254 255 256
246 244 244 243 243 243 244 245 245 244 243 242 242 243 244 245 245 245 245 245 247 248 248 248 247 247 247 248 248 250 251 252 253 255 255 256 255 254 253 254 254 255 256
248 246 245 244 243 243 244 245 245 245 244 243 243 243 244 244 245 246 247 246 247 247 248 248 248 247 248 249 250 251 252 253 254 255 256 256 257 255 254 255 255 255 256
248 247 246 245 244 244 244 245 245 245 245 245 245 244 244 245 246 246 246 246 246 247 248 248 248 248 249 250 251 252 253 254 254 255 256 257 256 256 256 256 255 255 256
248 246 245 246 246 245 245 246 245 245 245 244 244 244 245 245 245 246 246 247 247 247 248 248 248 249 250 251 251 252 254 255 256 256 255 256 257 257 259 259 258 255 255
248 247 246 246 247 246 247 247 247 246 245 244 244 244 245 245 245 245 246 246 247 248 248 249 249 249 250 252 253 254 254 255 256 257 257 257 257 257 258 260 260 258 257
249 248 247 247 247 247 247 247 247 247 246 245 245 245 245 245 245 246 246 247 248 249 250 250 251 251 251 252 253 254 255 256 257 257 258 258 258 258 259 260 260 260 260
250 248 247 247 248 248 247 248 247 246 245 245 245 245 245 246 246 246 247 248 248 249 250 250 252 252 253 253 254 255 256 257 258 258 258 259 259 259 259 259 260 261 261
251 249 249 248 248 248 248 248 247 246 245 246 246 245 245 246 247 248 248 249 250 250 250 251 252 252 253 253 254 255 256 257 258 259 259 258 258 258 258 258 260 260 261
250 250 250 249 249 248 248 248 247 245 245 246 246 246 246 246 247 248 249 250 250 251 251 252 253 254 254 254 254 255 255 256 257 258 258 257 257 257 258 258 260 261 261
251 250 250 250 249 249 249 248 247 246 245 245 246 246 246 247 247 247 248 250 251 252 253 254 254 255 255 255 255 255 256 256 257 257 257 257 257 258 258 259 260 261 261
253 251 250 250 249 249 249 249 248 248 247 246 246 246 246 246 247 247 248 250 251 251 252 253 254 254 255 256 256 257 256 256 256 256 257 257 258 259 260 260 261 261 262
254 253 252 251 250 249 249 249 249 249 248 248 247 247 247 247 247 247 248 249 251 251 252 253 254 254 255 256 257 257 257 257 256 256 257 258 259 260 261 261 262 262 263
253 253 253 252 250 250 250 250 250 250 250 249 248 248 248 248 248 248 249 250 251 251 252 253 253 255 256 257 257 257 257 257 257 257 257 259 260 260 261 261 262 263 264
255 254 254 253 252 251 251 251 251 251 250 250 249 249 248 248 249 249 250 251 252 253 253 253 254 255 255 256 257 258 258 258 258 259 259 259 260 260 261 261 262 262 263
Height
5834 5834 5835 5836 5837 5838 5839 5840 5841 5842 5843 5844 5845 5846 5847 5848 5849 5850 5850 5851 5852 5853 5853 5854 5855 5855 5856 5857 5857 5858 5858 5859 5859 5860 5860 5861 5861 5861 5861 5862 5862 5862 5862
5831 5832 5833 5834 5835 5836 5837 5838 5839 5840 5840 5841 5843 5844 5845 5846 5847 5848 5849 5850 5850 5851 5852 5853 5854 5854 5855 5856 5856 5857 5857 5858 5858 5859 5860 5860 5860 5861 5861 5861 5861 5861 5861
5827 5828 5829 5831 5832 5833 5834 5835 5836 5837 5838 5839 5840 5841 5843 5844 5845 5846 5847 5848 5848 5849 5850 5851 5852 5853 5854 5854 5855 5856 5856 5857 5857 5858 5858 5859 5860 5860 5860 5861 5861 5861 5861
5824 5825 5826 5827 5828 5830 5831 5832 5833 5834 5835 5836 5837 5839 5840 5841 5842 5843 5844 5845 5847 5848 5849 5850 5850 5851 5852 5853 5853 5854 5855 5855 5856 5857 5857 5858 5858 5859 5859 5859 5860 5860 5860
5820 5821 5822 5823 5824 5826 5827 5828 5829 5831 5832 5833 5834 5835 5837 5838 5839 5840 5842 5843 5844 5845 5846 5848 5849 5849 5850 5851 5852 5852 5853 5853 5854 5855 5856 5856 5857 5857 5858 5858 5859 5859 5859
5816 5817 5818 5819 5820 5822 5823 5824 5826 5827 5828 5829 5831 5832 5834 5835 5836 5837 5839 5840 5841 5842 5844 5845 5846 5847 5848 5849 5849 5850 5851 5852 5852 5853 5854 5854 5855 5855 5856 5857 5857 5857 5858
5811 5812 5813 5815 5816 5817 5819 5820 5821 5823 5824 5826 5827 5828 5830 5831 5833 5834 5836 5837 5838 5839 5840 5842 5843 5844 5845 5846 5847 5848 5849 5849 5850 5850 5851 5852 5852 5853 5854 5854 5855 5856 5856
5806 5807 5809 5810 5811 5813 5814 5816 5817 5819 5820 5821 5823 5825 5826 5828 5829 5831 5832 5833 5835 5836 5837 5838 5840 5841 5842 5843 5844 5845 5846 5847 5847 5848 5848 5849 5850 5850 5851 5852 5853 5853 5854
5800 5802 5803 5804 5806 5807 5809 5811 5813 5814 5816 5817 5819 5820 5822 5823 5825 5827 5828 5830 5831 5832 5833 5835 5836 5837 5838 5839 5840 5841 5842 5843 5844 5844 5845 5846 5847 5847 5848 5849 5850 5850 5851
5794 5796 5797 5799 5800 5802 5804 5805 5807 5809 5811 5812 5814 5815 5817 5819 5821 5822 5824 5825 5827 5828 5829 5831 5832 5833 5834 5835 5836 5837 5838 5839 5840 5841 5841 5842 5843 5844 5845 5845 5846 5847 5847
5787 5789 5791 5793 5795 5796 5798 5800 5802 5803 5805 5807 5808 5810 5812 5814 5816 5817 5819 5820 5822 5823 5824 5826 5827 5828 5829 5831 5832 5833 5834 5835 5836 5837 5837 5838 5839 5840 5841 5841 5842 5843 5843
5780 5782 5784 5786 5788 5790 5792 5793 5796 5797 5799 5801 5803 5805 5807 5808 5810 5812 5814 5815 5816 5818 5819 5821 5822 5823 5824 5826 5827 5828 5829 5830 5831 5832 5833 5833 5834 5835 5836 5837 5838 5838 5839
5772 5774 5776 5778 5780 5782 5784 5787 5789 5791 5793 5795 5797 5799 5801 5802 5804 5806 5808 5809 5811 5812 5814 5815 5817 5818 5819 5820 5822 5823 5824 5825 5826 5827 5828 5828 5829 5830 5831 5832 5832 5833 5834
5764 5766 5768 5770 5772 5774 5776 5779 5781 5783 5786 5788 5790 5792 5794 5796 5798 5800 5801 5803 5805 5806 5808 5809 5810 5812 5813 5815 5816 5817 5818 5819 5820 5821 5822 5823 5823 5824 5825 5826 5827 5828 5828
5755 5757 5759 5761 5763 5766 5768 5770 5773 5775 5778 5780 5782 5784 5787 5789 5791 5793 5794 5796 5798 5799 5801 5803 5804 5806 5807 5808 5810 5811 5812 5813 5814 5815 5816 5817 5818 5818 5819 5820 5820 5821 5822
5745 5747 5749 5752 5754 5757 5759 5761 5764 5767 5769 5772 5774 5776 5778 5781 5783 5785 5787 5789 5790 5792 5794 5796 5797 5799 5800 5801 5803 5804 5805 5807 5808 5809 5810 5810 5811 5812 5812 5813 5814 5815 5816
5736 5738 5740 5742 5745 5747 5750 5752 5754 5757 5760 5762 5765 5767 5770 5772 5774 5777 5779 5781 5783 5784 5786 5788 5790 5791 5793 5794 5796 5797 5798 5799 5800 5801 5802 5803 5804 5805 5806 5806 5807 5807 5808
5725 5727 5730 5732 5735 5737 5740 5742 5744 5747 5750 5753 5755 5758 5761 5763 5766 5768 5770 5772 5774 5776 5778 5780 5782 5783 5785 5786 5788 5789 5790 5791 5792 5793 5794 5795 5796 5797 5798 5799 5799 5800 5801
5714 5717 5719 5722 5724 5727 5729 5732 5734 5737 5740 5743 5745 5748 5751 5754 5756 5759 5761 5763 5765 5767 5769 5771 5773 5774 5776 5778 5779 5780 5782 5783 5784 5785 5786 5787 5788 5789 5790 5791 5791 5792 5793
5703 5705 5708 5711 5713 5716 5718 5721 5723 5726 5729 5732 5735 5738 5741 5744 5746 5749 5751 5753 5755 5757 5759 5761 5763 5765 5767 5768 5770 5771 5772 5774 5774 5775 5777 5778 5779 5780 5781 5782 5783 5784 5785
5692 5694 5696 5699 5701 5704 5707 5709 5712 5715 5718 5721 5724 5727 5730 5733 5736 5738 5741 5743 5745 5747 5749 5751 5753 5755 5757 5758 5760 5761 5763 5764 5765 5766 5767 5768 5769 5771 5772 5773 5774 5775 5776
5680 5683 5685 5687 5689 5692 5694 5697 5700 5703 5706 5709 5712 5715 5718 5722 5724 5727 5730 5732 5734 5736 5739 5740 5742 5744 5746 5748 5749 5751 5752 5754 5755 5756 5757 5759 5760 5761 5762 5763 5765 5765 5766
5669 5671 5673 5675 5678 5680 5682 5685 5688 5691 5694 5697 5700 5703 5706 5709 5712 5715 5718 5720 5722 5725 5727 5729 5731 5733 5735 5736 5738 5740 5742 5743 5745 5746 5747 5749 5750 5751 5752 5753 5754 5755 5756
5657 5659 5661 5663 5665 5668 5670 5672 5675 5678 5681 5685 5687 5690 5693 5696 5700 5702 5705 5708 5710 5712 5714 5717 5719 5721 5722 5724 5726 5728 5730 5732 5734 5736 5737 5738 5739 5740 5741 5742 5743 5744 5745
5646 5648 5649 5651 5653 5656 5658 5660 5662 5665 5668 5671 5674 5677 5680 5683 5686 5689 5692 5695 5697 5699 5702 5704 5706 5708 5710 5712 5714 5715 5717 5719 5721 5723 5725 5727 5727 5728 5729 5730 5731 5732 5733
5634 5636 5637 5639 5641 5643 5645 5647 5649 5652 5654 5657 5660 5663 5666 5669 5673 5676 5678 5681 5683 5686 5688 5690 5693 5695 5697 5698 5700 5702 5704 5706 5708 5710 5712 5714 5715 5716 5717 5718 5719 5720 5721